[[{"header":{"parameterUnit":"m.s-1","parameterCategory":1,"la1":30.2991,"la2":30.254,"lo1":-89.0895,"lo2":-89.0444,"dy":0.0017,"dx":0.0017,"nx":28,"ny":28,"refTime":"2023-07-31T03:00:00:Z","depth":0,"parameterNumber":2,"parameterNumberName":"U-component_of_WINDS"},"data":[0,0,0,0,0,0,0,0,0,0,0,0,0,0,0,0,0,0,0,0,0,0,0,0,0,0,0,0,0,0,0,0,0,0,0,0,0,0,0,0,0,0,0,0,0,0,0,0,0,0,0,0,0,0,0,0,0,0,0.402,0.4022,0,0.4175,0.4177,0.4178,0.4237,0.4237,0.4236,0.4236,0.4396,0.44,0.4405,0,0,0,0,0,0,0,0,0,0,0,0,0,0.3774,0.3778,0.402,0.4022,0.4024,0.4175,0.4177,0.4179,0.4237,0.4237,0.4236,0.4235,0.4394,0.44,0.4405,0,0,0,0,0,0,0,0,0,0,0,0,0,0.39,0.378,0.4019,0.4071,0.4077,0.4174,0.4177,0.4179,0.4237,0.4237,0.4236,0.4235,0.4392,0.4399,0.4406,0.4464,0,0,0.4428,0.4431,0,0,0,0,0,0,0,0,0.3893,0.3909,0.4061,0.4067,0.4075,0.4186,0.4149,0.4275,0.4237,0.4176,0.4236,0.4235,0.4327,0.4339,0.437,0.4471,0.4478,0.4428,0.4433,0.4436,0.4438,0,0,0,0,0,0,0,0.3884,0.3903,0.4081,0.4063,0.4072,0.4086,0.4103,0.4173,0.4254,0.4182,0.4186,0.4204,0.433,0.4363,0.4374,0.4481,0.4428,0.4434,0.4439,0.4441,0.4637,0.4637,0,0,0,0,0,0,0.3867,0.3895,0.4076,0.4086,0.398,0.4091,0.411,0.4151,0.4253,0.4268,0.4204,0.4206,0.4351,0.4366,0.438,0.4453,0.4436,0.4442,0.4446,0.4636,0.4637,0.4638,0,0,0,0,0,0,0.3861,0.3882,0.407,0.3992,0.4017,0.4096,0.4141,0.4154,0.4187,0.427,0.4285,0.4223,0.4351,0.437,0.4442,0.446,0.4445,0.4452,0.4634,0.4636,0.4637,0.4601,0,0,0,0,0,0,0.3854,0.388,0.3903,0.3992,0.4021,0.413,0.4142,0.4158,0.4199,0.4203,0.4291,0.4305,0.4352,0.4431,0.4449,0.4469,0.4457,0.4633,0.4635,0.4637,0.4601,0.4601,0.4601,0,0,0,0,0,0.3845,0.3887,0.3904,0.3925,0.4051,0.413,0.4147,0.4199,0.42,0.4223,0.4277,0.4303,0.4455,0.4438,0.4459,0.4481,0.4632,0.4635,0.4637,0.4601,0.4601,0.4601,0,0,0,0,0,0,0.3798,0.3899,0.3919,0.3991,0.4052,0.414,0.4171,0.4198,0.426,0.4261,0.4323,0.4343,0.441,0.4453,0.4433,0.4542,0.4545,0.4552,0.4511,0.4512,0.4512,0.45,0.4463,0,0,0,0,0,0.3796,0.3852,0.3938,0.3993,0.4022,0.4091,0.4128,0.4163,0.4228,0.4255,0.4313,0.4376,0.4438,0.4478,0.4539,0.4608,0.4628,0.4633,0.4633,0.4633,0.4637,0.4676,0.4679,0.4645,0.4645,0.4645,0,0,0.3793,0.3855,0.3887,0.3985,0.4036,0.4093,0.4113,0.4172,0.4214,0.4264,0.4335,0.438,0.4455,0.4525,0.4559,0.4563,0.4651,0.4635,0.4634,0.464,0.4679,0.4682,0.4685,0.4646,0.4646,0.4646,0,0,0.3815,0.3868,0.3919,0.397,0.4046,0.4092,0.4104,0.4189,0.422,0.4293,0.4331,0.4383,0.4489,0.454,0.4579,0.462,0.4646,0.4638,0.4638,0.4675,0.4678,0.4681,0.4694,0.4699,0.4643,0.4643,0.4643,0,0.3801,0.3887,0.3942,0.3999,0.4041,0.4088,0.414,0.4187,0.428,0.4307,0.431,0.4443,0.4497,0.4579,0.4589,0.462,0.4636,0.4628,0.4673,0.4676,0.468,0.4694,0.4699,0.4641,0.4641,0.4642,0.4642,0,0.3866,0.3925,0.3957,0.4045,0.4091,0.4145,0.4208,0.4248,0.4279,0.4324,0.4397,0.4463,0.4538,0.456,0.4591,0.4647,0.4647,0.4661,0.4665,0.4681,0.4695,0.47,0.4639,0.464,0.464,0.464,0,0,0.3863,0.398,0.3991,0.4031,0.4119,0.4166,0.4222,0.4295,0.4328,0.439,0.4439,0.4527,0.454,0.4585,0.4622,0.4654,0.4681,0.4664,0.4667,0.4665,0.4746,0.4735,0.474,0.4699,0.4701,0.4702,0.474,0,0.3896,0.3998,0.4049,0.4129,0.4184,0.4229,0.4278,0.4337,0.4381,0.4434,0.4483,0.4544,0.4557,0.4584,0.4618,0.4671,0.4698,0.4669,0.4745,0.4747,0.4724,0.4748,0.4736,0.4769,0.4746,0.4747,0.4747,0,0.3948,0.401,0.4095,0.4176,0.4201,0.4244,0.4315,0.4365,0.4433,0.4463,0.4512,0.4549,0.4609,0.461,0.4694,0.4673,0.4707,0.4738,0.474,0.4749,0.4748,0.4756,0.4781,0.4785,0.4757,0.4756,0.4755,0,0.3936,0.4041,0.4105,0.4138,0.4234,0.4263,0.4305,0.4372,0.4412,0.4475,0.4501,0.457,0.4607,0.4659,0.4713,0.4708,0.4792,0.4797,0.4818,0.4816,0.4833,0.4831,0.4863,0.4856,0.4856,0.4856,0.4856,0,0.3968,0.4018,0.4101,0.414,0.4198,0.4256,0.4311,0.4356,0.4415,0.4465,0.4508,0.4553,0.4621,0.4675,0.4718,0.4781,0.4798,0.4823,0.4833,0.4819,0.4815,0.4842,0.4841,0.4857,0.4857,0.4857,0.4856,0,0.3964,0.4022,0.4095,0.4179,0.4202,0.424,0.4313,0.4353,0.4399,0.446,0.4478,0.455,0.4615,0.4674,0.4761,0.4789,0.4853,0.4867,0.483,0.4836,0.4853,0.485,0.4902,0.4912,0.4898,0.4898,0.4899,0,0.398,0.402,0.4108,0.4144,0.4184,0.4242,0.4283,0.4341,0.4383,0.4463,0.4493,0.4561,0.4619,0.4721,0.4781,0.4848,0.4863,0.4877,0.4874,0.4857,0.4863,0.486,0.4864,0.4876,0.4876,0.4876,0.4876,0,0.4002,0.4028,0.4086,0.4154,0.4201,0.4258,0.4315,0.4342,0.4411,0.4455,0.4522,0.4567,0.4655,0.4723,0.4796,0.4839,0.4869,0.4876,0.4885,0.487,0.4846,0.4859,0.4828,0.4875,0.4875,0.4875,0.4875,0.4875,0.4008,0.4045,0.4113,0.4176,0.4225,0.4278,0.4319,0.437,0.4427,0.4503,0.4534,0.4602,0.4669,0.477,0.4813,0.4867,0.4872,0.4885,0.4888,0.489,0.4886,0.4838,0.488,0.488,0.4881,0.4881,0.4881,0,0.4032,0.4077,0.4135,0.4213,0.4263,0.4286,0.4351,0.439,0.4449,0.4509,0.4565,0.4641,0.4707,0.4772,0.484,0.4871,0.4887,0.4887,0.4886,0.4895,0.4878,0.4863,0.4874,0.4874,0.4874,0.4874,0.4874,0.4874,0.4049,0.4113,0.4147,0.4236,0.4282,0.4348,0.4383,0.4432,0.4479,0.4563,0.4617,0.4659,0.4721,0.4794,0.4855,0.4873,0.4896,0.4892,0.4913,0.4896,0.4896,0.4896,0.4883,0.4897,0.4897,0.4926,0.4926,0.4927]},{"header":{"parameterUnit":"m.s-1","parameterCategory":1,"la1":30.2991,"la2":30.254,"lo1":-89.0895,"lo2":-89.0444,"dy":0.0017,"dx":0.0017,"nx":28,"ny":28,"refTime":"2023-07-31T03:00:00:Z","depth":0,"parameterNumber":3,"parameterNumberName":"V-component_of_WINDS"},"data":[0,0,0,0,0,0,0,0,0,0,0,0,0,0,0,0,0,0,0,0,0,0,0,0,0,0,0,0,0,0,0,0,0,0,0,0,0,0,0,0,0,0,0,0,0,0,0,0,0,0,0,0,0,0,0,0,0,0,2.996,2.9959,0,2.9866,2.9865,2.9864,2.9793,2.9793,2.9792,2.9791,2.9688,2.9686,2.9684,0,0,0,0,0,0,0,0,0,0,0,0,0,3.0072,3.007,2.996,2.9958,2.9957,2.9866,2.9865,2.9863,2.9793,2.9793,2.9792,2.9791,2.9689,2.9686,2.9684,0,0,0,0,0,0,0,0,0,0,0,0,0,3.0005,3.007,2.996,2.9911,2.9906,2.9866,2.9865,2.9863,2.9793,2.9793,2.9792,2.9791,2.969,2.9687,2.9683,2.9682,0,0,2.9673,2.9672,0,0,0,0,0,0,0,0,3.0009,3.0001,2.992,2.9915,2.9909,2.984,2.9866,2.9802,2.9794,2.9836,2.9791,2.979,2.9739,2.9732,2.9716,2.9677,2.9672,2.9673,2.9671,2.967,2.9669,0,0,0,0,0,0,0,3.0014,3.0005,2.9922,2.9919,2.9912,2.9892,2.9882,2.9854,2.9794,2.9832,2.9827,2.9817,2.9736,2.9719,2.9713,2.9671,2.9673,2.967,2.9668,2.9667,2.9625,2.9626,0,0,0,0,0,0,3.0027,3.0009,2.9925,2.9919,2.9958,2.9891,2.9879,2.9863,2.9794,2.9782,2.9818,2.9814,2.9725,2.9717,2.9709,2.9701,2.967,2.9667,2.9665,2.9624,2.9625,2.9626,0,0,0,0,0,0,3.0029,3.002,2.9929,2.9963,2.995,2.989,2.9873,2.9862,2.9845,2.9783,2.9771,2.9813,2.9724,2.9714,2.9689,2.9697,2.9665,2.9662,2.9623,2.9624,2.9625,2.9687,0,0,0,0,0,0,3.0033,3.0021,3.0021,2.9963,2.9948,2.9913,2.9873,2.9861,2.9841,2.9835,2.9775,2.9764,2.9723,2.9695,2.9686,2.9692,2.966,2.9622,2.9623,2.9625,2.9684,2.969,2.9696,0,0,0,0,0,3.0037,3.0041,3.0022,3.0012,2.9947,2.9914,2.9905,2.9859,2.9842,2.984,2.98,2.9766,2.9698,2.9693,2.9682,2.9687,2.9621,2.9623,2.9625,2.9681,2.9689,2.9696,0,0,0,0,0,0,3.0099,3.0032,3.001,2.9996,2.9961,2.9902,2.9898,2.9869,2.9836,2.9832,2.9774,2.9761,2.9743,2.9713,2.9708,2.9682,2.9655,2.9655,2.9702,2.9709,2.9714,2.9721,2.9657,0,0,0,0,0,3.0111,3.0091,3.0034,3.0026,3.0011,2.9958,2.9941,2.991,2.987,2.9854,2.9813,2.9774,2.9744,2.9725,2.9694,2.9681,2.9665,2.9679,2.9685,2.969,2.9689,2.9679,2.9684,2.9632,2.9632,2.9632,0,0,3.0135,3.0097,3.0087,3.0038,3.0007,2.9986,2.9946,2.9925,2.9907,2.985,2.9825,2.9794,2.9746,2.9728,2.9717,2.9702,2.9701,2.9692,2.9697,2.9693,2.9681,2.9686,2.9691,2.9633,2.9633,2.9633,0,0,3.0168,3.0138,3.0129,3.01,3.0055,3.002,3.0018,2.9963,2.9941,2.9916,2.9872,2.985,2.98,2.9768,2.9745,2.9768,2.9734,2.976,2.9789,2.9779,2.9783,2.9787,2.9793,2.9796,2.976,2.976,2.976,0,3.0203,3.0171,3.0127,3.0109,3.0088,3.0039,3.0027,3.0,2.9947,2.9932,2.9917,2.9853,2.9818,2.979,2.9797,2.978,2.9774,2.9765,2.9787,2.979,2.9792,2.9798,2.98,2.9763,2.9763,2.9763,2.9762,0,3.0216,3.0195,3.0192,3.0144,3.0123,3.0109,3.006,3.0044,3.0015,2.9981,2.9955,2.9912,2.9871,2.9862,2.9833,2.9831,2.9822,2.9798,2.977,2.9801,2.9805,2.9807,2.9768,2.9767,2.9766,2.9765,0,0,3.0282,3.0212,3.0212,3.0189,3.0137,3.0118,3.0102,3.0064,3.005,3.0016,2.9998,2.9958,2.9936,2.991,2.9876,2.9868,2.9888,2.9844,2.9842,2.9852,2.9881,2.9898,2.9902,2.9867,2.9867,2.9867,2.9884,0,3.0305,3.0274,3.0234,3.0216,3.0194,3.0148,3.0133,3.0098,3.0067,3.0043,3.0007,2.9979,2.9953,2.9937,2.9927,2.9888,2.9892,2.9886,2.9847,2.9846,2.9858,2.9904,2.9922,2.994,2.9886,2.9886,2.9886,0,3.0328,3.0298,3.0278,3.0228,3.0218,3.0205,3.0168,3.0146,3.0106,3.0083,3.0056,3.0021,2.9998,2.9975,2.9942,2.9939,2.9921,2.99,2.9899,2.9892,2.9867,2.9896,2.9945,2.9948,2.9889,2.9888,2.9888,0,3.0376,3.0331,3.0313,3.0296,3.0237,3.023,3.0204,3.0163,3.0144,3.011,3.0097,3.0061,3.004,3.0012,2.9968,2.9955,2.9939,2.9913,2.9918,2.9919,2.9914,2.9914,2.9959,2.9907,2.9907,2.9907,2.9906,0,3.0405,3.0394,3.0334,3.0323,3.0309,3.0263,3.025,3.022,3.0184,3.0165,3.0123,3.0105,3.0048,3.0023,2.9988,2.9965,2.9957,2.9936,2.9927,2.9939,2.9941,2.9924,2.9921,2.9907,2.9907,2.9907,2.9907,0,3.0455,3.0415,3.0392,3.034,3.0327,3.0319,3.0273,3.0259,3.0227,3.0203,3.0195,3.0142,3.0111,3.0065,3.0018,2.9995,2.9977,2.9962,2.9991,2.9985,2.9992,2.9992,3.0026,3.0027,2.9976,2.9977,2.9977,0,3.0475,3.0466,3.0414,3.0399,3.0377,3.0353,3.0334,3.0288,3.0269,3.0223,3.0214,3.0181,3.0151,3.0102,3.0059,3.0023,3.0006,3.0021,3.0,3.0013,3.0004,3.0005,3.0003,3.0025,3.0026,3.0026,3.0027,0,3.0514,3.0495,3.047,3.0438,3.0417,3.0388,3.0358,3.0348,3.0295,3.0276,3.0245,3.0222,3.0176,3.0142,3.0101,3.0073,3.004,3.0034,3.0033,3.0044,3.0061,3.0051,3.0002,3.0033,3.0032,3.0032,3.0031,3.0031,3.0548,3.0538,3.05,3.0473,3.0447,3.042,3.0405,3.0371,3.0345,3.0306,3.0281,3.0251,3.021,3.0152,3.0125,3.01,3.0086,3.0085,3.0084,3.0084,3.0088,3.0068,3.0092,3.0092,3.0091,3.0091,3.0091,0,3.0584,3.0558,3.0534,3.0494,3.0473,3.0448,3.0413,3.0396,3.0372,3.0338,3.031,3.0274,3.0241,3.0196,3.016,3.0148,3.0132,3.014,3.0139,3.0132,3.0103,3.0107,3.0153,3.0153,3.0153,3.0153,3.0153,3.0153,3.06,3.0581,3.0558,3.0525,3.0498,3.0471,3.0453,3.0427,3.04,3.0363,3.0336,3.0308,3.0269,3.023,3.0198,3.0186,3.0173,3.0185,3.0168,3.014,3.0135,3.0129,3.0132,3.0183,3.0183,3.0199,3.0199,3.0199]}]]